Location: �terpigny
(49.8910°N, 2.9249°E)
Time: 11:44:58
(UTC+00:00)

Cosmos 2322 Rocket - Pass Details

Date: 24 October 2021
Orbit: 832 x 851 km, 71.0° (Epoch: 05 December)

Event Time Altitude Azimuth Distance (km) Brightness Sun altitude
Rises 19:48:13 0° 242° (WSW) 3,371 5.9 -30.8°
Reaches altitude 10° 19:50:56 10° 253° (WSW) 2,441 5.2 -31.2°
Maximum altitude 19:55:50 30° 314° (NW) 1,453 3.8 -31.9°
Enters shadow 20:00:00 14° 11° (N) 2,216 4.5 -32.5°
